| time (UTC) | temp F | wind direction | speed MPH | gust MPH | rain 1hr in | rain 24hr in | rain mn in | humidity % | barometer mb |
| 20260505204532 | 54 | 36 | 4.0 | 9.0 | 0.12 | 0.36 | 0.36 | 92 | 1007.9 |
| 20260505203035 | 56 | 52 | 4.0 | 12.0 | 0.10 | 0.33 | 0.33 | 91 | 1007.8 |
| 20260505201538 | 57 | 0 | 1.0 | 4.0 | 0.15 | 0.30 | 0.30 | 91 | 1007.9 |
| 20260505200035 | 57 | 304 | 1.0 | 6.0 | 0.21 | 0.26 | 0.26 | 91 | 1007.9 |
| 20260505194532 | 57 | 278 | 0.0 | 2.0 | 0.21 | 0.24 | 0.24 | 90 | 1007.9 |
| 20260505193035 | 57 | 314 | 1.0 | 3.0 | 0.22 | 0.23 | 0.23 | 88 | 1007.9 |
| 20260505191536 | 58 | 0 | 0.0 | 6.0 | 0.15 | 0.15 | 0.15 | 86 | 1008.1 |
| 20260505190035 | 59 | 0 | 0.0 | 1.0 | 0.05 | 0.05 | 0.05 | 84 | 1008.0 |
| 20260505184532 | 59 | 0 | 1.0 | 3.0 | 0.02 | 0.02 | 0.02 | 83 | 1007.9 |
| 20260505183045 | 60 | 246 | 2.0 | 8.0 | 0.00 | 0.00 | 0.00 | 80 | 1008.1 |
| 20260505181533 | 61 | 219 | 5.0 | 11.0 | 0.00 | 0.00 | 0.00 | 78 | 1007.9 |
| 20260505180035 | 61 | 213 | 5.0 | 15.0 | 0.00 | 0.00 | 0.00 | 76 | 1007.8 |
| 20260505174535 | 62 | 299 | 3.0 | 13.0 | 0.00 | 0.00 | 0.00 | 75 | 1007.8 |
| 20260505173035 | 63 | 242 | 3.0 | 11.0 | 0.00 | 0.00 | 0.00 | 74 | 1007.7 |
| 20260505171532 | 63 | 281 | 6.0 | 12.0 | 0.00 | 0.00 | 0.00 | 74 | 1007.6 |
| 20260505170031 | 63 | 5 | 4.0 | 12.0 | 0.00 | 0.00 | 0.00 | 74 | 1007.7 |
| 20260505164553 | 63 | 277 | 3.0 | 14.0 | 0.00 | 0.00 | 0.00 | 74 | 1007.8 |
| 20260505163036 | 64 | 333 | 3.0 | 13.0 | 0.00 | 0.00 | 0.00 | 73 | 1007.7 |
| 20260505161547 | 64 | 293 | 6.0 | 14.0 | 0.00 | 0.00 | 0.00 | 71 | 1007.5 |
| 20260505153040 | 67 | 344 | 5.0 | 13.0 | 0.00 | 0.00 | 0.00 | 66 | 1007.1 |
| 20260505151536 | 67 | 227 | 4.0 | 14.0 | 0.00 | 0.00 | 0.00 | 67 | 1006.4 |
| 20260505124544 | 62 | 54 | 5.0 | 15.0 | 0.00 | 0.00 | 0.00 | 74 | 1006.0 |
| 20260505123032 | 61 | 243 | 5.0 | 14.0 | 0.00 | 0.00 | 0.00 | 74 | 1005.9 |
| 20260505121536 | 61 | 230 | 5.0 | 20.0 | 0.00 | 0.00 | 0.00 | 73 | 1005.7 |
| 20260505120047 | 61 | 291 | 3.0 | 12.0 | 0.00 | 0.00 | 0.00 | 74 | 1005.3 |
| 20260505114534 | 61 | 201 | 1.0 | 7.0 | 0.00 | 0.00 | 0.00 | 74 | 1004.8 |
| 20260505113034 | 61 | 234 | 1.0 | 7.0 | 0.00 | 0.00 | 0.00 | 73 | 1004.2 |
| 20260505111537 | 61 | 41 | 4.0 | 12.0 | 0.00 | 0.00 | 0.00 | 72 | 1004.1 |
| 20260505101533 | 63 | 245 | 2.0 | 8.0 | 0.00 | 0.00 | 0.00 | 71 | 1004.0 |
| 20260505100034 | 64 | 178 | 5.0 | 18.0 | 0.00 | 0.00 | 0.00 | 69 | 1004.1 |
| 20260505094536 | 64 | 217 | 2.0 | 12.0 | 0.00 | 0.00 | 0.00 | 68 | 1003.8 |
| 20260505093035 | 65 | 217 | 3.0 | 11.0 | 0.00 | 0.00 | 0.00 | 67 | 1003.4 |
| 20260505091535 | 65 | 242 | 5.0 | 12.0 | 0.00 | 0.00 | 0.00 | 67 | 1003.2 |
| 20260505090048 | 65 | 254 | 5.0 | 13.0 | 0.00 | 0.00 | 0.00 | 66 | 1003.1 |
| 20260505084553 | 65 | 154 | 4.0 | 12.0 | 0.00 | 0.00 | 0.00 | 66 | 1003.0 |
| 20260505083051 | 66 | 233 | 3.0 | 13.0 | 0.00 | 0.00 | 0.00 | 65 | 1002.8 |
| 20260505081552 | 66 | 70 | 2.0 | 22.0 | 0.00 | 0.00 | 0.00 | 65 | 1002.6 |
| 20260505080048 | 66 | 173 | 4.0 | 10.0 | 0.00 | 0.00 | 0.00 | 64 | 1002.4 |
| 20260505074548 | 67 | 271 | 4.0 | 9.0 | 0.00 | 0.00 | 0.00 | 63 | 1002.6 |
| 20260505073046 | 68 | 227 | 4.0 | 15.0 | 0.00 | 0.00 | 0.00 | 62 | 1002.5 |
| 20260505071548 | 68 | 292 | 2.0 | 11.0 | 0.00 | 0.00 | 0.00 | 61 | 1002.5 |
| 20260505070044 | 68 | 313 | 3.0 | 14.0 | 0.00 | 0.00 | 0.00 | 60 | 1002.7 |
| 20260505064554 | 68 | 246 | 5.0 | 18.0 | 0.00 | 0.00 | 0.00 | 60 | 1002.5 |
| 20260505063038 | 68 | 130 | 5.0 | 16.0 | 0.00 | 0.00 | 0.00 | 61 | 1002.4 |
| 20260505061532 | 68 | 299 | 6.0 | 14.0 | 0.00 | 0.00 | 0.00 | 63 | 1002.6 |
| 20260505060036 | 67 | 259 | 5.0 | 14.0 | 0.00 | 0.00 | 0.00 | 64 | 1002.5 |
| 20260505054537 | 67 | 155 | 5.0 | 12.0 | 0.00 | 0.00 | 0.00 | 65 | 1002.5 |
| 20260505053059 | 67 | 149 | 5.0 | 14.0 | 0.00 | 0.00 | 0.00 | 66 | 1002.7 |
| 20260505051535 | 66 | 148 | 5.0 | 13.0 | 0.00 | 0.00 | 0.00 | 67 | 1002.9 |
| 20260505041542 | 66 | 215 | 4.0 | 11.0 | 0.00 | 0.00 | 0.00 | 68 | 1003.3 |
| 20260505040038 | 65 | 155 | 4.0 | 12.0 | 0.00 | 0.00 | 0.00 | 69 | 1003.3 |
| 20260505034535 | 65 | 86 | 3.0 | 7.0 | 0.00 | 0.00 | 0.00 | 70 | 1003.5 |
| 20260505033045 | 64 | 153 | 2.0 | 7.0 | 0.00 | 0.00 | 0.00 | 69 | 1003.6 |
| 20260505031535 | 65 | 147 | 2.0 | 8.0 | 0.00 | 0.00 | 0.00 | 68 | 1003.8 |
| 20260505030035 | 65 | 223 | 2.0 | 7.0 | 0.00 | 0.00 | 0.00 | 67 | 1003.8 |
| 20260505024533 | 66 | 186 | 0.0 | 7.0 | 0.00 | 0.00 | 0.00 | 66 | 1003.9 |
| 20260505023035 | 66 | 148 | 2.0 | 6.0 | 0.00 | 0.00 | 0.00 | 64 | 1003.8 |
| 20260505021533 | 67 | 174 | 4.0 | 14.0 | 0.00 | 0.00 | 0.00 | 63 | 1003.8 |
| 20260505020037 | 67 | 215 | 2.0 | 15.0 | 0.00 | 0.00 | 0.00 | 62 | 1003.7 |
| 20260505014536 | 68 | 199 | 4.0 | 13.0 | 0.00 | 0.00 | 0.00 | 61 | 1003.5 |
| 20260505013033 | 68 | 192 | 3.0 | 10.0 | 0.00 | 0.00 | 0.00 | 60 | 1003.7 |
| 20260505011554 | 69 | 188 | 4.0 | 14.0 | 0.00 | 0.00 | 0.00 | 59 | 1003.5 |
| 20260505010035 | 69 | 129 | 3.0 | 11.0 | 0.00 | 0.00 | 0.00 | 58 | 1003.4 |
| 20260505004534 | 69 | 196 | 2.0 | 7.0 | 0.00 | 0.00 | 0.00 | 57 | 1003.2 |
| 20260505003031 | 70 | 246 | 3.0 | 10.0 | 0.00 | 0.00 | 0.00 | 56 | 1003.0 |
| 20260505001537 | 71 | 252 | 4.0 | 13.0 | 0.00 | 0.00 | 0.00 | 54 | 1002.9 |
| 20260505000041 | 71 | 160 | 3.0 | 14.0 | 0.00 | 0.00 | 0.00 | 53 | 1002.6 |
| 20260504234534 | 72 | 125 | 4.0 | 21.0 | 0.00 | 0.00 | 0.00 | 53 | 1002.6 |
| 20260504233034 | 73 | 148 | 6.0 | 15.0 | 0.00 | 0.00 | 0.00 | 53 | 1002.4 |
| 20260504231534 | 74 | 212 | 2.0 | 10.0 | 0.00 | 0.00 | 0.00 | 55 | 1002.1 |
| 20260504230037 | 74 | 211 | 5.0 | 15.0 | 0.00 | 0.00 | 0.00 | 54 | 1002.3 |
| 20260504224541 | 75 | 199 | 5.0 | 14.0 | 0.00 | 0.00 | 0.00 | 54 | 1002.4 |
| 20260504223031 | 75 | 189 | 3.0 | 18.0 | 0.00 | 0.00 | 0.00 | 55 | 1002.6 |
| 20260504221532 | 75 | 249 | 5.0 | 17.0 | 0.00 | 0.00 | 0.00 | 53 | 1002.7 |
| 20260504220034 | 73 | 207 | 4.0 | 12.0 | 0.00 | 0.00 | 0.00 | 58 | 1002.7 |
| 20260504214534 | 73 | 205 | 2.0 | 20.0 | 0.00 | 0.00 | 0.00 | 59 | 1002.9 |
| 20260504213037 | 74 | 234 | 6.0 | 15.0 | 0.00 | 0.00 | 0.00 | 55 | 1003.0 |
| 20260504211535 | 73 | 184 | 3.0 | 13.0 | 0.00 | 0.00 | 0.00 | 57 | 1003.0 |
| 20260504210034 | 76 | 327 | 5.0 | 16.0 | 0.00 | 0.00 | 0.00 | 53 | 1003.0 |